Tracking 25734 objects as of 28-May-2022
HD Live streaming from Space Station
objects crossing your sky now

NOAA 17 DEB

Track NOAA 17 DEB now!
10-day predictions


NORAD ID: 48752
Int'l Code: 2002-032CN
Perigee: 740.6 km
Apogee: 799.1 km
Inclination: 98.7 °
Period: 100.1 minutes
Semi major axis: 7140 km
RCS: Unknown
Launch date: June 24, 2002
Source: United States (US)
Launch site: AIR FORCE WESTERN TEST RANGE (AFWTR)

Note: This is SATELLITE DEBRIS
aabbcc
Your satellite tracking list
Your tracking list is empty




NASA's NSSDC Master Catalog

Two Line Element Set (TLE):
1 48752U 02032CM  22147.71455355  .00004611  00000-0  15012-2 0  9997
2 48752  98.6979 104.1597 0040973 130.9837 229.4905 14.38733664 61011
Source of the keplerian elements: AFSPC